Weather History for Flag Island, MN

Change the Weather History Date:

Friday, January 3, 2014

  Actual Average Record
Temperature  
Mean Temperature 0 °F -  
Max Temperature 8 °F 11 °F 37 °F (2007)
Min Temperature -7 °F -1 °F -25 °F (2005)
Degree Days  
Heating Degree Days 64    
Moisture  
Dew Point 0 °F    
Average Humidity 83    
Maximum Humidity 92    
Minimum Humidity 77    
Precipitation  
Precipitation 0.00 in - - ()
Sea Level Pressure  
Sea Level Pressure 29.54 in    
Wind  
Wind Speed 18 mph (SSE)    
Max Wind Speed 30 mph    
Max Gust Speed 31 mph    
Visibility 6 miles    
Events Snow    
Averages and records for this station are not official NWS values.
T = Trace of Precipitation, MM = Missing Value Source: NWS Daily Summary

Daily Weather History Graph

Daily Weather History Graph

Search for Another Location

Airport:

Trip Planner

Search our weather history database for the weather conditions in past years. The results will help you decide how hot, cold, wet, or windy it might be!

Date:

Astronomy

Jan. 03, 2014 Rise Set
Actual Time 8:14 AM CST 4:33 PM CST
Civil Twilight 7:37 AM CST 5:11 PM CST
Nautical Twilight 6:56 AM CST 5:51 PM CST
Astronomical Twilight 6:18 AM CST 6:30 PM CST
Moon 9:24 AM CST (1/3) 8:02 PM CST (1/3)
Length of Visible Light 9h 33m
Length of Day
8h 18m
Waxing Crescent, 8% of the Moon is Illuminated
Jan 3
Waxing Crescent
Jan 7
First Quarter
Jan 15
Full
Jan 23
Last Quarter
Jan 30
New

Hourly Weather History & Observations

Time (CST) Temp. Windchill Dew Point Humidity Pressure Visibility Wind Dir Wind Speed Gust Speed Precip Events Conditions
12:13 AM -7.6 °F -30.5 °F -11.2 °F 84% 30.06 in 10.0 mi South 17.3 mph - N/A   Mostly Cloudy
12:33 AM -5.8 °F -27.5 °F -11.2 °F 77% 30.05 in 10.0 mi South 16.1 mph - N/A   Overcast
12:53 AM -5.8 °F -28.2 °F -11.2 °F 77% 30.03 in 10.0 mi South 17.3 mph - N/A   Overcast
1:13 AM -5.8 °F -28.2 °F -11.2 °F 77% 29.99 in 10.0 mi SSE 17.3 mph - N/A   Overcast
1:33 AM -5.8 °F -28.8 °F -11.2 °F 77% 29.98 in 10.0 mi SSE 18.4 mph - N/A   Overcast
1:53 AM -5.8 °F -28.8 °F -11.2 °F 77% 29.96 in 10.0 mi SSE 18.4 mph - N/A   Overcast
2:13 AM -5.8 °F -29.4 °F -9.4 °F 84% 29.94 in 10.0 mi SSE 19.6 mph - N/A   Overcast
2:33 AM -5.8 °F -29.9 °F -9.4 °F 84% 29.93 in 7.0 mi SSE 20.7 mph - N/A   Overcast
2:53 AM -4.0 °F -29.1 °F -9.4 °F 78% 29.91 in 5.0 mi SSE 24.2 mph - N/A   Haze
3:14 AM -4.0 °F -28.6 °F -7.6 °F 85% 29.89 in 2.0 mi SSE 23.0 mph - N/A Snow Light Snow
3:33 AM -2.2 °F -27.6 °F -7.6 °F 78% 29.86 in 1.2 mi SSE 26.5 mph - N/A Snow Light Snow
3:53 AM -2.2 °F -27.1 °F -7.6 °F 78% 29.84 in 1.0 mi SSE 25.3 mph - N/A Snow Light Snow
4:14 AM -2.2 °F -27.1 °F -7.6 °F 78% 29.81 in 1.0 mi SSE 25.3 mph 31.1 mph N/A Snow Light Snow
4:33 AM -2.2 °F -28.0 °F -5.8 °F 85% 29.78 in 1.2 mi SSE 27.6 mph - N/A Snow Light Snow
4:53 AM -2.2 °F -28.0 °F -5.8 °F 85% 29.75 in 1.0 mi SSE 27.6 mph - N/A Snow Light Snow
5:14 AM -0.4 °F -26.4 °F -5.8 °F 78% 29.71 in - SSE 29.9 mph - N/A   Overcast
5:33 AM -0.4 °F -25.2 °F -5.8 °F 78% 29.69 in - SSE 26.5 mph - N/A   Overcast
5:53 AM -0.4 °F -25.6 °F -4.0 °F 85% 29.68 in - SSE 27.6 mph - N/A   Overcast
6:14 AM -0.4 °F -25.6 °F -4.0 °F 85% 29.66 in - SSE 27.6 mph - N/A   Overcast
6:33 AM 1.4 °F -22.3 °F -2.2 °F 85% 29.64 in - SSE 25.3 mph - N/A   Overcast
6:53 AM 1.4 °F -23.2 °F -2.2 °F 85% 29.62 in - SSE 27.6 mph - N/A   Overcast
7:14 AM 1.4 °F -22.7 °F -2.2 °F 85% 29.60 in - SSE 26.5 mph - N/A   Overcast
7:33 AM 3.2 °F -19.5 °F -0.4 °F 85% 29.60 in - SSE 24.2 mph - N/A   Unknown
7:53 AM 3.2 °F -19.5 °F -0.4 °F 85% 29.58 in - SSE 24.2 mph - N/A   Overcast
8:13 AM 3.2 °F -19.0 °F -0.4 °F 85% 29.56 in - SSE 23.0 mph - N/A   Overcast
8:33 AM 3.2 °F -18.6 °F -0.4 °F 85% 29.54 in - SSE 21.9 mph - N/A   Unknown
8:53 AM 3.2 °F -19.5 °F -0.4 °F 85% 29.53 in - South 24.2 mph - N/A   Unknown
9:13 AM 3.2 °F -18.6 °F 1.4 °F 92% 29.52 in - South 21.9 mph - N/A   Overcast
9:34 AM - - - N/A% 29.51 in - SSE 20.7 mph - N/A   Unknown
9:53 AM 5.0 °F -16.7 °F 1.4 °F 85% 29.49 in - South 23.0 mph - N/A   Overcast
10:13 AM 5.0 °F -15.7 °F 1.4 °F 85% 29.47 in - SSE 20.7 mph - N/A   Unknown
10:33 AM 5.0 °F -17.1 °F 1.4 °F 85% 29.46 in - South 24.2 mph - N/A   Unknown
10:53 AM 5.0 °F -17.1 °F 1.4 °F 85% 29.44 in - South 24.2 mph - N/A   Overcast
11:14 AM 6.8 °F -13.8 °F 1.4 °F 79% 29.43 in - South 21.9 mph - N/A   Unknown
11:33 AM 6.8 °F -13.4 °F 1.4 °F 79% 29.43 in - South 20.7 mph - N/A   Overcast
11:53 AM 6.8 °F -12.4 °F 1.4 °F 79% 29.41 in - SSE 18.4 mph - N/A   Overcast
12:13 PM 6.8 °F -12.4 °F 1.4 °F 79% 29.39 in - SSE 18.4 mph - N/A   Overcast
12:33 PM 6.8 °F -11.3 °F 1.4 °F 79% 29.38 in - SSE 16.1 mph - N/A   Overcast
12:54 PM 6.8 °F -10.7 °F 3.2 °F 85% 29.36 in - SSE 15.0 mph - N/A   Overcast
1:13 PM 6.8 °F -10.7 °F 3.2 °F 85% 29.35 in - SSE 15.0 mph - N/A   Overcast
1:33 PM 6.8 °F -11.3 °F 3.2 °F 85% 29.34 in - SSE 16.1 mph - N/A   Overcast
1:54 PM 6.8 °F -10.7 °F 3.2 °F 85% 29.33 in - SSE 15.0 mph - N/A   Overcast
2:13 PM 6.8 °F -10.7 °F 3.2 °F 85% 29.33 in - SSE 15.0 mph - N/A   Unknown
2:33 PM 6.8 °F -9.3 °F 3.2 °F 85% 29.33 in - SSE 12.7 mph - N/A   Overcast
2:54 PM - - - N/A% - - North - - N/A   Unknown
3:13 PM 8.6 °F -3.7 °F 3.2 °F 79% 29.32 in - ESE 8.1 mph - N/A   Unknown
3:33 PM 8.6 °F -4.7 °F 5.0 °F 85% 29.32 in - SE 9.2 mph - N/A   Unknown
3:53 PM 8.6 °F -1.3 °F 5.0 °F 85% 29.32 in - SE 5.8 mph - N/A   Overcast
4:14 PM 8.6 °F -1.3 °F 5.0 °F 85% 29.32 in - SE 5.8 mph - N/A   Overcast
4:33 PM 8.6 °F 0.1 °F 5.0 °F 85% 29.32 in - SE 4.6 mph - N/A   Overcast
4:53 PM 8.6 °F -2.6 °F 5.0 °F 85% 29.32 in - ESE 6.9 mph - N/A   Overcast
5:14 PM 8.6 °F -1.3 °F 5.0 °F 85% 29.33 in - ESE 5.8 mph - N/A   Unknown
5:33 PM 8.6 °F -1.3 °F 5.0 °F 85% 29.33 in - ESE 5.8 mph - N/A   Overcast
5:53 PM 8.6 °F -1.3 °F 5.0 °F 85% 29.33 in - ESE 5.8 mph - N/A   Overcast
6:14 PM 8.6 °F -2.6 °F 5.0 °F 85% 29.32 in - East 6.9 mph - N/A   Overcast
6:33 PM 8.6 °F -1.3 °F 5.0 °F 85% 29.33 in - ESE 5.8 mph - N/A   Overcast
6:53 PM 8.6 °F -1.3 °F 3.2 °F 79% 29.31 in - East 5.8 mph - N/A   Overcast
7:14 PM 8.6 °F 0.1 °F 5.0 °F 85% 29.34 in - East 4.6 mph - N/A   Unknown
7:34 PM 8.6 °F - 5.0 °F 85% 29.34 in - Calm Calm - N/A   Unknown
7:53 PM 8.6 °F - 5.0 °F 85% 29.36 in - Calm Calm - N/A   Overcast
8:13 PM 8.6 °F - 3.2 °F 79% 29.36 in - Calm Calm - N/A   Overcast
8:33 PM 8.6 °F 2.0 °F 5.0 °F 85% 29.37 in - North 3.5 mph - N/A   Unknown
8:54 PM - - - N/A% 29.38 in - NNW 8.1 mph - N/A   Unknown
9:13 PM 8.6 °F -3.7 °F 5.0 °F 85% 29.39 in - NNW 8.1 mph - N/A   Overcast
9:33 PM 8.6 °F -3.7 °F 5.0 °F 85% 29.39 in - NNW 8.1 mph - N/A   Overcast
9:53 PM 8.6 °F -6.3 °F 5.0 °F 85% 29.39 in - North 11.5 mph - N/A   Overcast
10:14 PM 8.6 °F -5.5 °F 5.0 °F 85% 29.41 in - NNW 10.4 mph - N/A   Unknown
10:34 PM 8.6 °F -7.0 °F 5.0 °F 85% 29.42 in - NNW 12.7 mph - N/A   Unknown
10:53 PM 8.6 °F -8.3 °F 5.0 °F 85% 29.43 in - NNW 15.0 mph - N/A   Unknown
11:13 PM 8.6 °F -10.0 °F 3.2 °F 79% 29.44 in - NNW 18.4 mph - N/A   Overcast
11:34 PM 8.6 °F -10.5 °F 3.2 °F 79% 29.45 in - NNW 19.6 mph - N/A   Unknown
11:54 PM - - - N/A% - - North - - N/A   Unknown